Iwanui, Waitara Historical Data
 
Daily Summary for December 15, 2018 Units:  Metric    English   Both
« Previous Day
Next Day »
Daily Weekly Monthly Yearly Custom
  Current: High: Low: Average:
Temperature: 17.0 °C 26.6 °C 14.8 °C 20 °C
Dew Point: 13.6 °C 17.4 °C 11.7 °C 14.1 °C
Humidity: 80% 91% 50% 71%
Wind Speed: 1.1km/h 15.8km/h 0.0km/h 4.6km/h
Wind Gust: 8.7km/h 21.9km/h - -
WindESE - - South
Pressure: 1023.5 hPa 1023.5 hPa 1019.5 hPa -
Precipitation: 1.8 mm      
Historical Graphs
 
 
Tabular Data for December 15, 2018
Time Temperature Dew Point Pressure Wind Wind Speed Wind Gust Humidity Rainfall Rate (Hourly)
00:04 15.7 °C 14.2 °C 1020.0 hPa South 1.1 km/h 5.0 km/h 91% 0.0 mm
00:09 15.7 °C 14.2 °C 1020.1 hPa Calm   5.0 km/h 91% 0.0 mm
00:14 15.7 °C 14.2 °C 1020.1 hPa Calm   3.5 km/h 91% 0.0 mm
00:19 15.7 °C 14.2 °C 1020.1 hPa Calm   1.1 km/h 91% 0.0 mm
00:24 15.7 °C 14.2 °C 1020.3 hPa Calm   2.6 km/h 91% 0.0 mm
00:29 15.2 °C 13.7 °C 1020.3 hPa Calm   2.6 km/h 91% 0.0 mm
00:34 15.2 °C 13.7 °C 1020.3 hPa SSE 3.5 km/h 6.1 km/h 91% 0.0 mm
00:39 15.2 °C 13.7 °C 1020.1 hPa South 2.6 km/h 6.1 km/h 91% 0.0 mm
00:44 15.2 °C 13.7 °C 1020.1 hPa South 2.6 km/h 6.1 km/h 91% 0.0 mm
00:49 15.2 °C 13.7 °C 1020.0 hPa South 3.5 km/h 6.1 km/h 91% 0.0 mm
00:54 15.2 °C 13.7 °C 1020.0 hPa South 2.6 km/h 6.1 km/h 91% 0.0 mm
00:59 15.2 °C 13.7 °C 1019.8 hPa SSE 1.1 km/h 5.0 km/h 91% 0.0 mm
01:04 15.1 °C 13.7 °C 1019.8 hPa Calm   5.0 km/h 91% 0.0 mm
01:09 15.1 °C 13.7 °C 1019.9 hPa SSE 2.6 km/h 3.5 km/h 91% 0.0 mm
01:14 15.2 °C 13.7 °C 1019.8 hPa SSE 2.6 km/h 5.0 km/h 91% 0.0 mm
01:19 15.2 °C 13.7 °C 1019.9 hPa SSE 1.1 km/h 5.0 km/h 91% 0.0 mm
01:24 15.2 °C 13.7 °C 1019.8 hPa South 2.6 km/h 5.0 km/h 91% 0.0 mm
01:29 15.2 °C 13.7 °C 1019.9 hPa South 2.6 km/h 7.2 km/h 91% 0.0 mm
01:34 15.2 °C 13.7 °C 1020.1 hPa South 1.1 km/h 7.2 km/h 91% 0.0 mm
01:39 15.2 °C 13.7 °C 1020.0 hPa South 1.1 km/h 7.2 km/h 91% 0.0 mm
01:44 15.2 °C 13.7 °C 1020.0 hPa SSE 2.6 km/h 7.2 km/h 91% 0.0 mm
01:49 15.2 °C 13.7 °C 1019.9 hPa SSE 3.5 km/h 7.2 km/h 91% 0.0 mm
01:54 15.2 °C 13.7 °C 1019.9 hPa SSE 2.6 km/h 7.2 km/h 91% 0.0 mm
01:59 15.2 °C 13.7 °C 1019.9 hPa SSE 2.6 km/h 7.2 km/h 91% 0.0 mm
02:04 15.2 °C 13.7 °C 1020.0 hPa SSE 1.1 km/h 6.1 km/h 91% 0.0 mm
02:09 15.2 °C 13.7 °C 1019.9 hPa South 2.6 km/h 6.1 km/h 91% 0.0 mm
02:14 15.2 °C 13.7 °C 1019.9 hPa South 1.1 km/h 5.0 km/h 91% 0.0 mm
02:19 15.2 °C 13.7 °C 1019.8 hPa South 3.5 km/h 5.0 km/h 91% 0.0 mm
02:24 15.2 °C 13.7 °C 1019.8 hPa SSE 2.6 km/h 5.0 km/h 91% 0.0 mm
02:29 15.2 °C 13.7 °C 1019.6 hPa SSE 1.1 km/h 5.0 km/h 91% 0.0 mm
02:34 15.2 °C 13.7 °C 1019.7 hPa SSE 3.5 km/h 5.0 km/h 91% 0.0 mm
02:39 15.2 °C 13.7 °C 1019.7 hPa SE 1.1 km/h 6.1 km/h 91% 0.0 mm
02:44 15.2 °C 13.7 °C 1019.6 hPa SE 2.6 km/h 6.1 km/h 91% 0.0 mm
02:49 15.2 °C 13.7 °C 1019.6 hPa SSE 2.6 km/h 6.1 km/h 91% 0.0 mm
02:54 15.2 °C 13.7 °C 1019.7 hPa SSE 3.5 km/h 7.2 km/h 91% 0.0 mm
02:59 15.2 °C 13.7 °C 1019.6 hPa South 3.5 km/h 7.2 km/h 91% 0.0 mm
03:04 15.1 °C 13.7 °C 1019.6 hPa South 2.6 km/h 7.2 km/h 91% 0.0 mm
03:09 15.0 °C 13.6 °C 1019.6 hPa South 5.0 km/h 8.7 km/h 91% 0.0 mm
03:14 15.0 °C 13.6 °C 1019.6 hPa South 5.0 km/h 8.7 km/h 91% 0.0 mm
03:19 15.0 °C 13.6 °C 1019.5 hPa South 5.0 km/h 8.7 km/h 91% 0.0 mm
03:24 15.0 °C 13.6 °C 1019.6 hPa SSE 2.6 km/h 8.7 km/h 91% 0.0 mm
03:29 15.0 °C 13.6 °C 1019.6 hPa South 2.6 km/h 7.2 km/h 91% 0.0 mm
03:34 15.0 °C 13.6 °C 1019.6 hPa South 5.0 km/h 8.7 km/h 91% 0.0 mm
03:39 15.0 °C 13.6 °C 1019.6 hPa SSE 5.0 km/h 8.7 km/h 91% 0.0 mm
03:44 15.0 °C 13.6 °C 1019.6 hPa SSE 3.5 km/h 8.7 km/h 91% 0.0 mm
03:49 15.0 °C 13.6 °C 1019.6 hPa SSE 1.1 km/h 9.7 km/h 91% 0.0 mm
03:54 15.0 °C 13.6 °C 1019.5 hPa SSE 3.5 km/h 9.7 km/h 91% 0.0 mm
03:59 15.0 °C 13.6 °C 1019.5 hPa SSE 5.0 km/h 9.7 km/h 91% 0.0 mm
04:04 15.0 °C 13.4 °C 1019.5 hPa SSE 3.5 km/h 9.7 km/h 90% 0.0 mm
04:09 15.0 °C 13.4 °C 1019.5 hPa SSE 3.5 km/h 11.1 km/h 90% 0.0 mm
04:14 15.0 °C 13.4 °C 1019.5 hPa SE 2.6 km/h 11.1 km/h 90% 0.0 mm
04:19 14.9 °C 13.4 °C 1019.5 hPa SE 2.6 km/h 8.7 km/h 91% 0.0 mm
04:24 14.9 °C 13.4 °C 1019.6 hPa ESE 3.5 km/h 7.2 km/h 91% 0.0 mm
04:29 14.8 °C 13.3 °C 1019.6 hPa Calm   7.2 km/h 91% 0.0 mm
04:34 14.8 °C 13.3 °C 1019.7 hPa SSE 3.5 km/h 6.1 km/h 91% 0.0 mm
04:39 14.8 °C 13.3 °C 1019.8 hPa SE 2.6 km/h 8.7 km/h 91% 0.0 mm
04:44 14.9 °C 13.4 °C 1019.9 hPa SE 3.5 km/h 8.7 km/h 91% 0.0 mm
04:49 14.9 °C 13.4 °C 1019.8 hPa Calm   6.1 km/h 91% 0.0 mm
04:54 15.0 °C 13.4 °C 1019.9 hPa Calm   7.2 km/h 90% 0.0 mm
04:59 15.0 °C 13.4 °C 1020.0 hPa ESE 1.1 km/h 7.2 km/h 90% 0.0 mm
05:04 15.0 °C 13.4 °C 1019.8 hPa Calm   3.5 km/h 90% 0.0 mm
05:09 15.0 °C 13.4 °C 1019.9 hPa East 1.1 km/h 3.5 km/h 90% 0.0 mm
05:14 15.1 °C 13.5 °C 1019.9 hPa SE 1.1 km/h 5.0 km/h 90% 0.0 mm
05:19 15.1 °C 13.5 °C 1019.8 hPa SSE 1.1 km/h 5.0 km/h 90% 0.0 mm
05:24 15.1 °C 13.5 °C 1020.0 hPa Calm   5.0 km/h 90% 0.0 mm
05:29 15.1 °C 13.3 °C 1020.1 hPa SSE 2.6 km/h 5.0 km/h 89% 0.0 mm
05:34 15.1 °C 13.3 °C 1020.2 hPa Calm   5.0 km/h 89% 0.0 mm
05:39 15.1 °C 13.3 °C 1020.3 hPa Calm   5.0 km/h 89% 0.0 mm
05:44 15.0 °C 13.2 °C 1020.2 hPa South 2.6 km/h 5.0 km/h 89% 0.0 mm
05:49 15.0 °C 13.2 °C 1020.3 hPa South 2.6 km/h 6.1 km/h 89% 0.0 mm
05:54 15.0 °C 13.2 °C 1020.3 hPa Calm   6.1 km/h 89% 0.0 mm
05:59 15.1 °C 13.3 °C 1020.5 hPa SSE 1.1 km/h 6.1 km/h 89% 0.0 mm
06:04 15.1 °C 13.3 °C 1020.5 hPa SE 2.6 km/h 6.1 km/h 89% 0.0 mm
06:09 15.2 °C 13.4 °C 1020.4 hPa SSE 2.6 km/h 6.1 km/h 89% 0.0 mm
06:14 15.2 °C 13.4 °C 1020.5 hPa SSE 2.6 km/h 6.1 km/h 89% 0.0 mm
06:19 15.2 °C 13.4 °C 1020.6 hPa SE 2.6 km/h 6.1 km/h 89% 0.0 mm
06:24 15.2 °C 13.4 °C 1020.5 hPa SE 1.1 km/h 6.1 km/h 89% 0.0 mm
06:29 15.2 °C 13.4 °C 1020.8 hPa SSE 5.0 km/h 7.2 km/h 89% 0.0 mm
06:34 15.2 °C 13.4 °C 1020.7 hPa SSE 2.6 km/h 7.2 km/h 89% 0.0 mm
06:39 15.2 °C 13.4 °C 1020.8 hPa SSE 5.0 km/h 7.2 km/h 89% 0.0 mm
06:44 15.7 °C 14.1 °C 1020.7 hPa SSE 5.0 km/h 7.2 km/h 90% 0.0 mm
06:49 15.7 °C 14.1 °C 1020.7 hPa SSE 6.1 km/h 9.7 km/h 90% 0.0 mm
06:54 15.7 °C 14.1 °C 1020.8 hPa SSE 5.0 km/h 9.7 km/h 90% 0.0 mm
06:59 15.7 °C 13.9 °C 1020.8 hPa SSE 5.0 km/h 9.7 km/h 89% 0.0 mm
07:04 15.8 °C 14.0 °C 1020.9 hPa SSE 6.1 km/h 9.7 km/h 89% 0.0 mm
07:09 15.8 °C 14.0 °C 1020.9 hPa SSE 3.5 km/h 8.7 km/h 89% 0.0 mm
07:14 16.0 °C 13.8 °C 1021.0 hPa SSE 3.5 km/h 8.7 km/h 87% 0.0 mm
07:19 16.5 °C 14.3 °C 1021.0 hPa SSE 3.5 km/h 7.2 km/h 87% 0.0 mm
07:24 16.8 °C 14.4 °C 1021.1 hPa SSE 2.6 km/h 6.1 km/h 86% 0.0 mm
07:29 17.1 °C 14.4 °C 1021.3 hPa SSE 3.5 km/h 11.1 km/h 84% 0.0 mm
07:34 17.2 °C 13.9 °C 1021.3 hPa SE 6.1 km/h 11.1 km/h 81% 0.0 mm
07:39 17.4 °C 13.9 °C 1021.4 hPa SE 2.6 km/h 9.7 km/h 80% 0.0 mm
07:44 18.0 °C 14.5 °C 1021.4 hPa SSE 2.6 km/h 9.7 km/h 80% 0.0 mm
07:49 19.0 °C 15.3 °C 1021.4 hPa SSE 3.5 km/h 6.1 km/h 79% 0.0 mm
07:54 19.9 °C 15.2 °C 1021.4 hPa SSE 2.6 km/h 7.2 km/h 74% 0.0 mm
07:59 21.3 °C 15.6 °C 1021.4 hPa South 3.5 km/h 7.2 km/h 70% 0.0 mm
08:04 22.0 °C 14.4 °C 1021.5 hPa SSE 5.0 km/h 9.7 km/h 62% 0.0 mm
08:09 22.2 °C 14.1 °C 1021.6 hPa SSE 5.0 km/h 9.7 km/h 60% 0.0 mm
08:14 22.3 °C 13.9 °C 1021.6 hPa SSE 1.1 km/h 9.7 km/h 59% 0.0 mm
08:19 23.5 °C 15.6 °C 1021.7 hPa SSE 3.5 km/h 8.7 km/h 61% 0.0 mm
08:24 23.3 °C 14.3 °C 1021.8 hPa Calm   6.1 km/h 57% 0.0 mm
08:29 23.3 °C 13.8 °C 1021.7 hPa East 5.0 km/h 8.7 km/h 55% 0.0 mm
08:34 23.1 °C 13.6 °C 1021.6 hPa NE 7.2 km/h 8.7 km/h 55% 0.0 mm
08:39 22.6 °C 13.1 °C 1021.7 hPa NE 7.2 km/h 9.7 km/h 55% 0.0 mm
08:44 22.3 °C 12.3 °C 1021.6 hPa NE 7.2 km/h 13.4 km/h 53% 0.0 mm
08:49 22.5 °C 12.7 °C 1021.8 hPa NE 8.7 km/h 13.4 km/h 54% 0.0 mm
08:54 22.3 °C 12.0 °C 1021.7 hPa ENE 6.1 km/h 13.4 km/h 52% 0.0 mm
08:59 22.2 °C 11.9 °C 1021.6 hPa East 6.1 km/h 13.4 km/h 52% 0.0 mm
09:04 22.0 °C 11.7 °C 1021.7 hPa East 5.0 km/h 13.4 km/h 52% 0.0 mm
09:09 22.3 °C 12.3 °C 1021.8 hPa NE 5.0 km/h 13.4 km/h 53% 0.0 mm
09:14 22.6 °C 12.3 °C 1021.6 hPa NNW 8.7 km/h 12.2 km/h 52% 0.0 mm
09:19 22.7 °C 12.3 °C 1021.7 hPa ENE 6.1 km/h 12.2 km/h 52% 0.0 mm
09:24 22.7 °C 12.1 °C 1021.6 hPa ENE 8.7 km/h 12.2 km/h 51% 0.0 mm
09:29 23.2 °C 13.1 °C 1021.6 hPa NE 7.2 km/h 12.2 km/h 53% 0.0 mm
09:34 23.1 °C 12.7 °C 1021.7 hPa ENE 7.2 km/h 11.1 km/h 52% 0.0 mm
09:39 23.2 °C 12.5 °C 1021.5 hPa NNE 7.2 km/h 11.1 km/h 51% 0.0 mm
09:44 22.7 °C 12.1 °C 1021.7 hPa North 6.1 km/h 12.2 km/h 51% 0.0 mm
09:49 22.9 °C 12.2 °C 1021.6 hPa NE 6.1 km/h 12.2 km/h 51% 0.0 mm
09:54 23.0 °C 12.1 °C 1021.7 hPa NE 7.2 km/h 12.2 km/h 50% 0.0 mm
10:00 23.0 °C 12.6 °C 1021.7 hPa North 7.2 km/h 12.2 km/h 52% 0.3 mm
10:04 23.0 °C 12.9 °C 1021.8 hPa North 9.7 km/h 13.4 km/h 53% 0.3 mm
10:09 23.1 °C 13.3 °C 1021.8 hPa NNW 6.1 km/h 13.4 km/h 54% 0.3 mm
10:14 23.7 °C 13.6 °C 1021.8 hPa NW 5.0 km/h 12.2 km/h 53% 0.3 mm
10:19 23.2 °C 13.1 °C 1021.8 hPa NW 5.0 km/h 14.8 km/h 53% 0.3 mm
10:24 23.0 °C 12.9 °C 1021.8 hPa NW 5.0 km/h 14.8 km/h 53% 0.3 mm
10:29 23.4 °C 13.6 °C 1021.8 hPa NNW 6.1 km/h 13.4 km/h 54% 0.3 mm
10:34 23.2 °C 13.1 °C 1021.8 hPa North 7.2 km/h 13.4 km/h 53% 0.3 mm
10:39 23.5 °C 13.7 °C 1021.9 hPa NNW 5.0 km/h 13.4 km/h 54% 0.3 mm
10:44 23.5 °C 13.4 °C 1021.9 hPa NW 7.2 km/h 12.2 km/h 53% 0.3 mm
10:49 23.5 °C 13.4 °C 1022.0 hPa NW 8.7 km/h 14.8 km/h 53% 0.3 mm
10:54 23.5 °C 13.1 °C 1022.0 hPa NW 5.0 km/h 14.8 km/h 52% 0.3 mm
10:59 23.3 °C 13.2 °C 1021.9 hPa NW 5.0 km/h 12.2 km/h 53% 0.0 mm
11:04 23.6 °C 13.8 °C 1022.0 hPa NW 8.7 km/h 12.2 km/h 54% 0.0 mm
11:09 23.5 °C 13.4 °C 1022.1 hPa WNW 3.5 km/h 14.8 km/h 53% 0.0 mm
11:14 23.6 °C 13.8 °C 1022.1 hPa WNW 8.7 km/h 14.8 km/h 54% 0.0 mm
11:19 23.5 °C 13.4 °C 1022.0 hPa NW 6.1 km/h 14.8 km/h 53% 0.0 mm
11:24 23.7 °C 13.6 °C 1022.1 hPa NNW 6.1 km/h 14.8 km/h 53% 0.0 mm
11:29 23.8 °C 13.7 °C 1022.1 hPa NW 9.7 km/h 14.8 km/h 53% 0.0 mm
11:34 24.0 °C 13.8 °C 1022.1 hPa NW 5.0 km/h 14.8 km/h 53% 0.0 mm
11:39 24.0 °C 13.8 °C 1022.0 hPa NW 5.0 km/h 14.8 km/h 53% 0.0 mm
11:44 23.9 °C 14.1 °C 1022.1 hPa NW 7.2 km/h 14.8 km/h 54% 0.0 mm
11:49 23.8 °C 13.9 °C 1022.1 hPa NW 7.2 km/h 15.8 km/h 54% 0.0 mm
11:54 23.5 °C 13.7 °C 1022.0 hPa NW 6.1 km/h 15.8 km/h 54% 0.0 mm
11:59 23.7 °C 13.8 °C 1022.1 hPa NNW 8.7 km/h 13.4 km/h 54% 0.0 mm
12:04 23.4 °C 14.4 °C 1022.2 hPa NW 9.7 km/h 15.8 km/h 57% 0.0 mm
12:09 23.4 °C 14.4 °C 1022.2 hPa NW 6.1 km/h 18.3 km/h 57% 0.0 mm
12:14 23.4 °C 14.2 °C 1022.2 hPa NW 8.7 km/h 18.3 km/h 56% 0.0 mm
12:19 23.3 °C 14.6 °C 1022.2 hPa NW 13.4 km/h 17.2 km/h 58% 0.0 mm
12:24 23.4 °C 14.7 °C 1022.0 hPa NW 8.7 km/h 17.2 km/h 58% 0.0 mm
12:29 23.7 °C 14.4 °C 1022.1 hPa NW 7.2 km/h 17.2 km/h 56% 0.0 mm
12:34 23.8 °C 13.9 °C 1022.1 hPa NW 8.7 km/h 17.2 km/h 54% 0.0 mm
12:39 23.8 °C 14.2 °C 1022.2 hPa NNW 8.7 km/h 17.2 km/h 55% 0.0 mm
12:44 24.0 °C 14.4 °C 1022.2 hPa NNW 9.7 km/h 13.4 km/h 55% 0.0 mm
12:49 24.0 °C 13.6 °C 1022.2 hPa NW 6.1 km/h 14.8 km/h 52% 0.0 mm
12:54 24.1 °C 14.2 °C 1022.1 hPa WNW 7.2 km/h 17.2 km/h 54% 0.0 mm
12:59 23.5 °C 13.9 °C 1022.0 hPa WNW 12.2 km/h 17.2 km/h 55% 0.0 mm
13:04 23.4 °C 13.9 °C 1021.9 hPa NW 14.8 km/h 17.2 km/h 55% 0.0 mm
13:09 23.3 °C 14.1 °C 1021.9 hPa WNW 11.1 km/h 17.2 km/h 56% 0.0 mm
13:14 23.1 °C 14.7 °C 1021.9 hPa WNW 11.1 km/h 17.2 km/h 59% 0.0 mm
13:19 23.5 °C 15.1 °C 1021.9 hPa WNW 9.7 km/h 17.2 km/h 59% 0.0 mm
13:24 23.8 °C 14.8 °C 1021.9 hPa WNW 11.1 km/h 15.8 km/h 57% 0.0 mm
13:29 23.8 °C 14.5 °C 1021.9 hPa WNW 5.0 km/h 15.8 km/h 56% 0.0 mm
13:34 23.8 °C 14.2 °C 1021.8 hPa WNW 11.1 km/h 18.3 km/h 55% 0.0 mm
13:39 24.1 °C 14.5 °C 1021.8 hPa West 12.2 km/h 18.3 km/h 55% 0.0 mm
13:44 24.4 °C 14.5 °C 1021.8 hPa West 8.7 km/h 18.3 km/h 54% 0.0 mm
13:49 24.7 °C 15.1 °C 1021.8 hPa WSW 8.7 km/h 18.3 km/h 55% 0.0 mm
13:54 25.0 °C 14.5 °C 1021.8 hPa West 7.2 km/h 13.4 km/h 52% 0.0 mm
13:59 24.7 °C 14.5 °C 1021.7 hPa West 5.0 km/h 14.8 km/h 53% 0.0 mm
14:04 25.1 °C 14.6 °C 1021.7 hPa West 7.2 km/h 14.8 km/h 52% 0.0 mm
14:09 25.2 °C 14.7 °C 1021.8 hPa West 8.7 km/h 14.8 km/h 52% 0.0 mm
14:14 25.5 °C 14.7 °C 1021.8 hPa West 8.7 km/h 17.2 km/h 51% 0.0 mm
14:19 25.5 °C 14.7 °C 1021.7 hPa West 8.7 km/h 17.2 km/h 51% 0.0 mm
14:24 25.5 °C 14.7 °C 1021.5 hPa West 7.2 km/h 15.8 km/h 51% 0.0 mm
14:29 25.0 °C 14.2 °C 1021.5 hPa WNW 5.0 km/h 15.8 km/h 51% 0.0 mm
14:34 24.1 °C 14.2 °C 1021.5 hPa WNW 6.1 km/h 15.8 km/h 54% 0.0 mm
14:39 23.2 °C 14.2 °C 1021.5 hPa West 11.1 km/h 14.8 km/h 57% 0.0 mm
14:44 23.6 °C 15.9 °C 1021.4 hPa West 8.7 km/h 15.8 km/h 62% 0.0 mm
14:49 24.0 °C 15.5 °C 1021.4 hPa West 7.2 km/h 17.2 km/h 59% 0.0 mm
14:54 23.9 °C 16.2 °C 1021.2 hPa West 9.7 km/h 21.9 km/h 62% 0.0 mm
14:59 24.0 °C 15.8 °C 1021.2 hPa WSW 13.4 km/h 21.9 km/h 60% 0.0 mm
15:04 24.0 °C 16.1 °C 1021.2 hPa WSW 11.1 km/h 19.5 km/h 61% 0.0 mm
15:09 24.2 °C 15.4 °C 1021.2 hPa SW 6.1 km/h 17.2 km/h 58% 0.0 mm
15:14 24.5 °C 16.0 °C 1021.2 hPa WSW 12.2 km/h 15.8 km/h 59% 0.0 mm
15:19 24.8 °C 15.4 °C 1021.2 hPa WSW 5.0 km/h 15.8 km/h 56% 0.0 mm
15:24 25.1 °C 15.2 °C 1021.2 hPa West 8.7 km/h 17.2 km/h 54% 0.0 mm
15:29 25.3 °C 15.6 °C 1021.2 hPa West 6.1 km/h 17.2 km/h 55% 0.0 mm
15:34 25.2 °C 14.9 °C 1021.0 hPa West 8.7 km/h 21.9 km/h 53% 0.0 mm
15:39 25.6 °C 15.6 °C 1020.9 hPa West 11.1 km/h 21.9 km/h 54% 0.0 mm
15:44 25.5 °C 15.6 °C 1021.0 hPa WNW 15.8 km/h 20.9 km/h 54% 0.0 mm
15:49 25.1 °C 15.4 °C 1021.0 hPa WNW 14.8 km/h 20.9 km/h 55% 0.0 mm
15:54 24.6 °C 15.3 °C 1021.0 hPa West 9.7 km/h 20.9 km/h 56% 0.0 mm
15:59 24.7 °C 15.9 °C 1021.0 hPa West 9.7 km/h 18.3 km/h 58% 0.0 mm
16:04 25.6 °C 15.3 °C 1021.0 hPa WNW 9.7 km/h 17.2 km/h 53% 0.0 mm
16:09 25.7 °C 15.7 °C 1020.8 hPa WNW 8.7 km/h 20.9 km/h 54% 0.0 mm
16:14 25.8 °C 15.8 °C 1020.6 hPa WNW 12.2 km/h 20.9 km/h 54% 0.0 mm
16:19 26.6 °C 15.7 °C 1020.7 hPa WNW 9.7 km/h 20.9 km/h 51% 0.0 mm
16:24 26.6 °C 15.7 °C 1020.9 hPa WNW 7.2 km/h 20.9 km/h 51% 0.0 mm
16:29 25.5 °C 15.2 °C 1021.1 hPa West 9.7 km/h 17.2 km/h 53% 0.0 mm
16:34 23.9 °C 15.7 °C 1021.2 hPa West 13.4 km/h 20.9 km/h 60% 0.0 mm
16:39 22.8 °C 15.2 °C 1021.1 hPa West 9.7 km/h 20.9 km/h 62% 0.0 mm
16:44 22.2 °C 15.1 °C 1021.3 hPa West 6.1 km/h 15.8 km/h 64% 0.0 mm
16:49 22.1 °C 15.2 °C 1021.4 hPa WSW 1.1 km/h 15.8 km/h 65% 0.0 mm
16:54 21.9 °C 15.9 °C 1021.3 hPa SSW 6.1 km/h 15.8 km/h 69% 0.0 mm
16:59 21.3 °C 15.6 °C 1021.2 hPa South 3.5 km/h 15.8 km/h 70% 0.3 mm
17:04 21.1 °C 15.9 °C 1021.1 hPa South 5.0 km/h 8.7 km/h 72% 0.5 mm
17:09 20.6 °C 15.8 °C 1021.2 hPa South 3.5 km/h 6.1 km/h 74% 1.3 mm
17:14 20.3 °C 15.9 °C 1021.3 hPa SE 3.5 km/h 8.7 km/h 76% 1.3 mm
17:19 20.0 °C 16.3 °C 1021.3 hPa SE 2.6 km/h 8.7 km/h 79% 1.5 mm
17:24 20.0 °C 16.4 °C 1021.4 hPa SE 5.0 km/h 8.7 km/h 80% 1.5 mm
17:29 19.8 °C 16.8 °C 1021.4 hPa SE 7.2 km/h 9.7 km/h 83% 1.5 mm
17:34 19.8 °C 17.1 °C 1021.1 hPa SE 2.6 km/h 9.7 km/h 84% 1.5 mm
17:39 19.9 °C 17.1 °C 1021.1 hPa Calm   8.7 km/h 84% 1.5 mm
17:44 20.1 °C 17.1 °C 1021.0 hPa ESE 2.6 km/h 3.5 km/h 83% 1.5 mm
17:49 20.4 °C 17.4 °C 1021.0 hPa Calm   3.5 km/h 83% 1.5 mm
17:54 20.7 °C 17.3 °C 1021.0 hPa East 3.5 km/h 6.1 km/h 81% 1.5 mm
17:59 21.1 °C 17.3 °C 1021.0 hPa East 2.6 km/h 6.1 km/h 79% 1.3 mm
18:04 21.3 °C 17.3 °C 1021.0 hPa NE 7.2 km/h 8.7 km/h 78% 1.0 mm
18:09 21.3 °C 16.7 °C 1020.9 hPa NNE 3.5 km/h 8.7 km/h 75% 0.3 mm
18:14 22.1 °C 17.1 °C 1021.1 hPa NNE 2.6 km/h 8.7 km/h 73% 0.3 mm
18:19 23.5 °C 16.8 °C 1021.0 hPa ENE 2.6 km/h 5.0 km/h 66% 0.0 mm
18:24 24.4 °C 16.2 °C 1021.1 hPa East 2.6 km/h 5.0 km/h 60% 0.0 mm
18:29 25.1 °C 15.2 °C 1021.1 hPa Calm   5.0 km/h 54% 0.0 mm
18:34 25.8 °C 15.8 °C 1021.1 hPa Calm   5.0 km/h 54% 0.0 mm
18:39 25.8 °C 14.9 °C 1021.1 hPa NE 2.6 km/h 5.0 km/h 51% 0.0 mm
18:44 25.8 °C 14.9 °C 1021.2 hPa ENE 2.6 km/h 5.0 km/h 51% 0.0 mm
18:49 25.8 °C 15.2 °C 1021.2 hPa East 2.6 km/h 5.0 km/h 52% 0.0 mm
18:54 25.4 °C 15.2 °C 1021.3 hPa East 2.6 km/h 5.0 km/h 53% 0.0 mm
18:59 24.7 °C 15.3 °C 1021.3 hPa East 2.6 km/h 5.0 km/h 56% 0.0 mm
19:04 24.4 °C 15.3 °C 1021.4 hPa Calm   5.0 km/h 57% 0.0 mm
19:09 23.8 °C 15.3 °C 1021.3 hPa Calm   3.5 km/h 59% 0.0 mm
19:14 23.3 °C 15.9 °C 1021.5 hPa Calm   3.5 km/h 63% 0.0 mm
19:19 22.8 °C 15.4 °C 1021.5 hPa Calm   3.5 km/h 63% 0.0 mm
19:24 22.4 °C 15.3 °C 1021.5 hPa Calm   2.6 km/h 64% 0.0 mm
19:29 22.4 °C 15.3 °C 1021.6 hPa Calm   2.6 km/h 64% 0.0 mm
19:34 22.3 °C 15.7 °C 1021.6 hPa East 1.1 km/h 2.6 km/h 66% 0.0 mm
19:39 22.2 °C 15.6 °C 1021.7 hPa Calm   2.6 km/h 66% 0.0 mm
19:44 22.1 °C 15.7 °C 1021.7 hPa ESE 3.5 km/h 5.0 km/h 67% 0.0 mm
19:49 21.9 °C 15.7 °C 1021.8 hPa SSE 1.1 km/h 5.0 km/h 68% 0.0 mm
19:54 21.8 °C 15.9 °C 1021.9 hPa Calm   5.0 km/h 69% 0.0 mm
19:59 21.6 °C 15.7 °C 1022.0 hPa SSE 3.5 km/h 11.1 km/h 69% 0.0 mm
20:04 21.3 °C 14.9 °C 1022.1 hPa SSE 2.6 km/h 11.1 km/h 67% 0.0 mm
20:09 21.4 °C 14.6 °C 1022.1 hPa SSE 5.0 km/h 7.2 km/h 65% 0.0 mm
20:14 21.5 °C 14.2 °C 1021.9 hPa Calm   6.1 km/h 63% 0.0 mm
20:19 21.4 °C 14.1 °C 1022.1 hPa SSW 3.5 km/h 6.1 km/h 63% 0.0 mm
20:24 21.2 °C 13.7 °C 1022.0 hPa South 3.5 km/h 9.7 km/h 62% 0.0 mm
20:29 21.0 °C 13.4 °C 1022.2 hPa SSE 2.6 km/h 9.7 km/h 62% 0.0 mm
20:34 20.8 °C 13.5 °C 1022.2 hPa SSE 5.0 km/h 9.7 km/h 63% 0.0 mm
20:39 20.6 °C 13.6 °C 1022.2 hPa SSE 2.6 km/h 11.1 km/h 64% 0.0 mm
20:44 20.5 °C 13.4 °C 1022.2 hPa SSE 6.1 km/h 11.1 km/h 64% 0.0 mm
20:49 20.3 °C 13.5 °C 1022.2 hPa SSE 2.6 km/h 11.1 km/h 65% 0.0 mm
20:54 20.2 °C 13.4 °C 1022.3 hPa SE 2.6 km/h 11.1 km/h 65% 0.0 mm
20:59 20.1 °C 13.6 °C 1022.4 hPa SE 2.6 km/h 7.2 km/h 66% 0.0 mm
21:04 19.9 °C 13.6 °C 1022.3 hPa SSE 2.6 km/h 9.7 km/h 67% 0.0 mm
21:09 19.7 °C 13.4 °C 1022.4 hPa SE 3.5 km/h 11.1 km/h 67% 0.0 mm
21:14 19.5 °C 13.4 °C 1022.3 hPa SE 3.5 km/h 12.2 km/h 68% 0.0 mm
21:19 19.3 °C 13.3 °C 1022.3 hPa SE 9.7 km/h 13.4 km/h 68% 0.0 mm
21:24 19.0 °C 13.2 °C 1022.3 hPa SE 3.5 km/h 13.4 km/h 69% 0.0 mm
21:29 18.8 °C 13.2 °C 1022.3 hPa SE 8.7 km/h 13.4 km/h 70% 0.0 mm
21:34 18.7 °C 13.3 °C 1022.4 hPa SSE 7.2 km/h 12.2 km/h 71% 0.0 mm
21:39 18.5 °C 13.2 °C 1022.4 hPa South 5.0 km/h 12.2 km/h 71% 0.0 mm
21:44 18.4 °C 13.3 °C 1022.5 hPa SSE 2.6 km/h 9.7 km/h 72% 0.0 mm
21:49 18.3 °C 13.2 °C 1022.6 hPa SSE 7.2 km/h 9.7 km/h 72% 0.0 mm
21:54 18.2 °C 13.1 °C 1022.7 hPa South 3.5 km/h 9.7 km/h 72% 0.0 mm
21:59 18.0 °C 12.9 °C 1022.5 hPa South 5.0 km/h 9.7 km/h 72% 0.0 mm
22:04 17.9 °C 12.6 °C 1022.6 hPa SE 3.5 km/h 7.2 km/h 71% 0.0 mm
22:09 17.7 °C 12.6 °C 1022.7 hPa SE 2.6 km/h 7.2 km/h 72% 0.0 mm
22:14 17.5 °C 12.6 °C 1022.6 hPa SE 2.6 km/h 7.2 km/h 73% 0.0 mm
22:19 17.4 °C 12.7 °C 1022.9 hPa SE 2.6 km/h 7.2 km/h 74% 0.0 mm
22:24 17.3 °C 12.6 °C 1022.9 hPa Calm   6.1 km/h 74% 0.0 mm
22:29 17.1 °C 12.7 °C 1022.9 hPa Calm   5.0 km/h 75% 0.0 mm
22:34 17.0 °C 12.7 °C 1023.0 hPa ESE 2.6 km/h 6.1 km/h 76% 0.0 mm
22:39 16.9 °C 12.8 °C 1023.1 hPa ESE 3.5 km/h 7.2 km/h 77% 0.0 mm
22:44 17.0 °C 12.9 °C 1023.2 hPa SE 1.1 km/h 7.2 km/h 77% 0.0 mm
22:49 17.0 °C 13.2 °C 1023.2 hPa SE 2.6 km/h 7.2 km/h 78% 0.0 mm
22:54 17.1 °C 13.4 °C 1023.4 hPa SSE 3.5 km/h 7.2 km/h 79% 0.0 mm
22:59 17.1 °C 13.4 °C 1023.3 hPa SSE 3.5 km/h 8.7 km/h 79% 0.0 mm
23:04 17.2 °C 13.6 °C 1023.2 hPa SSE 3.5 km/h 8.7 km/h 79% 0.0 mm
23:09 17.1 °C 13.4 °C 1023.2 hPa SE 2.6 km/h 8.7 km/h 79% 0.0 mm
23:14 17.1 °C 13.6 °C 1023.3 hPa SE 3.5 km/h 7.2 km/h 80% 0.0 mm
23:19 17.1 °C 13.4 °C 1023.3 hPa SE 2.6 km/h 7.2 km/h 79% 0.0 mm
23:24 17.0 °C 13.6 °C 1023.4 hPa SE 3.5 km/h 8.7 km/h 80% 0.0 mm
23:29 17.0 °C 13.6 °C 1023.5 hPa SE 2.6 km/h 8.7 km/h 80% 0.0 mm
23:34 17.0 °C 13.6 °C 1023.5 hPa ESE 1.1 km/h 8.7 km/h 80% 0.0 mm
Waitara, Taranaki. New Zealand Historic Data
Compliments of Weather Underground - 2 mb